Weather History for Fryeburg, ME

Change the Weather History Date:

Tuesday, February 12, 2013

  Actual Average Record
Temperature  
Mean Temperature 32 °F -  
Max Temperature 41 °F 30 °F 48 °F (1999)
Min Temperature 24 °F 4 °F -17 °F (2014)
Degree Days  
Heating Degree Days 32    
Moisture  
Dew Point 26 °F    
Average Humidity 72    
Maximum Humidity 100    
Minimum Humidity 55    
Precipitation  
Precipitation 0.00 in - - ()
Sea Level Pressure  
Sea Level Pressure 29.62 in    
Wind  
Wind Speed 4 mph (West)    
Max Wind Speed 17 mph    
Max Gust Speed 28 mph    
Visibility 10 miles    
Events Rain    
Averages and records for this station are not official NWS values.
T = Trace of Precipitation, MM = Missing Value Source: NWS Daily Summary

Daily Weather History Graph

Daily Weather History Graph

Search for Another Location

Airport:

Trip Planner

Search our weather history database for the weather conditions in past years. The results will help you decide how hot, cold, wet, or windy it might be!

Date:

Astronomy

Feb. 12, 2013 Rise Set
Actual Time 6:46 AM EST 5:09 PM EST
Civil Twilight 6:17 AM EST 5:39 PM EST
Nautical Twilight 5:43 AM EST 6:13 PM EST
Astronomical Twilight 5:09 AM EST 6:46 PM EST
Moon 7:35 AM EST (2/12) 8:15 PM EST (2/12)
Length of Visible Light 11h 22m
Length of Day
10h 22m
Waxing Crescent, 7% of the Moon is Illuminated
Feb 12
Waxing Crescent
Feb 17
First Quarter
Feb 25
Full
Mar 4
Last Quarter
Mar 11
New

Hourly Weather History & Observations

Time (EST) Temp. Windchill Dew Point Humidity Pressure Visibility Wind Dir Wind Speed Gust Speed Precip Events Conditions
12:22 AM 24.8 °F - 24.8 °F 100% 29.55 in 8.0 mi Calm Calm - N/A   Overcast
12:54 AM 24.1 °F - 23.0 °F 96% 29.56 in 7.0 mi Calm Calm - N/A   Overcast
1:54 AM 24.1 °F - 23.0 °F 96% 29.55 in 8.0 mi Calm Calm - 0.00 in   Overcast
2:54 AM 25.0 °F 20.7 °F 23.0 °F 92% 29.54 in 10.0 mi SW 3.5 mph - 0.00 in   Clear
3:54 AM 26.1 °F 20.5 °F 25.0 °F 96% 29.55 in 10.0 mi SW 4.6 mph - N/A   Clear
4:54 AM 27.0 °F 20.5 °F 25.0 °F 92% 29.55 in 10.0 mi West 5.8 mph - N/A   Mostly Cloudy
5:54 AM 30.9 °F 24.3 °F 27.0 °F 85% 29.55 in 10.0 mi West 6.9 mph - N/A   Clear
6:54 AM 30.0 °F 24.1 °F 27.0 °F 88% 29.56 in 10.0 mi WSW 5.8 mph - N/A   Mostly Cloudy
7:54 AM 33.1 °F 30.0 °F 28.0 °F 82% 29.57 in 10.0 mi West 3.5 mph - N/A   Overcast
8:54 AM 36.0 °F 32.1 °F 28.9 °F 76% 29.56 in 10.0 mi Variable 4.6 mph - N/A   Mostly Cloudy
9:54 AM 39.9 °F 34.5 °F 28.0 °F 63% 29.57 in 10.0 mi West 8.1 mph - N/A   Mostly Cloudy
10:54 AM 41.0 °F 37.1 °F 27.0 °F 57% 29.59 in 10.0 mi West 5.8 mph - N/A   Overcast
11:54 AM 41.0 °F 37.1 °F 26.1 °F 55% 29.59 in 10.0 mi West 5.8 mph - N/A   Overcast
12:54 PM 41.0 °F 36.4 °F 26.1 °F 55% 29.60 in 10.0 mi WSW 6.9 mph - N/A   Overcast
1:54 PM 41.0 °F 36.4 °F 26.1 °F 55% 29.61 in 10.0 mi West 6.9 mph 16.1 mph N/A   Overcast
2:54 PM 39.0 °F 31.8 °F 26.1 °F 60% 29.63 in 10.0 mi West 11.5 mph 21.9 mph 0.00 in Rain Light Rain
3:54 PM 39.0 °F 32.8 °F 27.0 °F 62% 29.65 in 10.0 mi WNW 9.2 mph 19.6 mph 0.00 in Rain Light Rain
4:54 PM 39.0 °F 31.0 °F 26.1 °F 60% 29.66 in 10.0 mi WNW 13.8 mph 25.3 mph 0.00 in   Overcast
5:54 PM 37.9 °F 28.5 °F 26.1 °F 62% 29.68 in 10.0 mi West 17.3 mph 27.6 mph N/A   Overcast
6:54 PM 37.9 °F 30.5 °F 25.0 °F 60% 29.68 in 10.0 mi WNW 11.5 mph 23.0 mph N/A   Mostly Cloudy
7:54 PM 37.9 °F - 25.0 °F 60% 29.72 in 10.0 mi Calm Calm - 0.00 in Rain Light Rain
8:54 PM 37.0 °F 33.3 °F 24.1 °F 59% 29.74 in 10.0 mi Variable 4.6 mph 16.1 mph 0.00 in   Clear
9:54 PM 36.0 °F 32.1 °F 25.0 °F 64% 29.78 in 10.0 mi Variable 4.6 mph - N/A   Mostly Cloudy
10:54 PM 35.1 °F 29.3 °F 24.1 °F 64% 29.76 in 10.0 mi West 6.9 mph - 0.00 in Rain Light Rain
11:54 PM 35.1 °F 27.9 °F 21.9 °F 59% 29.76 in 10.0 mi WNW 9.2 mph 16.1 mph 0.00 in   Clear